WB0RXX Weather Reports


time (UTC)temp
C
wind
direction
speed
KPH
gust
KPH
rain 1hr
cm
rain 24hr
cm
rain mn
cm
humidity
%
barometer
mb
20260502152003 13 231 6.4 11.3 0.00 0.00 0.00 43 1017.4
20260502151005 13 286 1.6 4.8 0.00 0.00 0.00 46 1017.5
20260502123003 3 308 0.0 1.6 0.00 0.00 0.00 73 1018.8
20260502122004 2 308 0.0 0.0 0.00 0.00 0.00 74 1018.9
20260502121005 2 308 0.0 1.6 0.00 0.00 0.00 74 1018.8
20260502115004 2 308 0.0 0.0 0.00 0.00 0.00 73 1018.9
20260502114003 2 308 0.0 4.8 0.00 0.00 0.00 73 1019.0
20260502113004 2 308 0.0 0.0 0.00 0.00 0.00 74 1019.0
20260502112003 2 308 0.0 1.6 0.00 0.00 0.00 74 1019.1
20260502111003 1 308 0.0 0.0 0.00 0.00 0.00 75 1019.0
20260502110004 1 308 0.0 3.2 0.00 0.00 0.00 75 1019.0
20260502105005 1 308 0.0 1.6 0.00 0.00 0.00 74 1019.1
20260502104003 1 308 0.0 0.0 0.00 0.00 0.00 75 1019.0
20260502103004 1 318 1.6 6.4 0.00 0.00 0.00 77 1019.1
20260502102004 1 323 0.0 0.0 0.00 0.00 0.00 77 1019.2
20260502101004 1 323 0.0 0.0 0.00 0.00 0.00 77 1019.2
20260502091004 1 323 0.0 0.0 0.00 0.00 0.00 75 1019.4
20260502071005 3 323 0.0 0.0 0.00 0.00 0.00 69 1019.5
20260502070003 3 323 0.0 0.0 0.00 0.00 0.00 69 1019.5
20260502065004 3 323 0.0 0.0 0.00 0.00 0.00 69 1019.5
20260502064003 3 323 0.0 1.6 0.00 0.00 0.00 73 1019.8
20260502063020 3 323 0.0 0.0 0.00 0.00 0.00 75 1019.8
20260502062003 3 323 0.0 0.0 0.00 0.00 0.00 74 1019.8
20260502061004 4 323 0.0 0.0 0.00 0.00 0.00 66 1019.7
20260502060003 4 323 0.0 0.0 0.00 0.00 0.00 62 1019.7
20260502055018 5 323 0.0 0.0 0.00 0.00 0.00 63 1019.8
20260502054004 5 323 0.0 0.0 0.00 0.00 0.00 62 1019.9
20260502053018 5 323 0.0 0.0 0.00 0.00 0.00 62 1019.9
20260502052018 5 323 0.0 0.0 0.00 0.00 0.00 62 1019.9
20260502051003 5 323 0.0 0.0 0.00 0.00 0.00 62 1020.0
20260502050006 5 323 0.0 0.0 0.00 0.00 0.00 60 1019.9
20260502045003 5 323 0.0 1.6 0.00 0.00 0.00 59 1019.9
20260502044018 5 323 0.0 0.0 0.00 0.00 0.00 59 1019.9
20260502043004 6 323 0.0 0.0 0.00 0.00 0.00 59 1020.0
20260502042004 6 323 0.0 0.0 0.00 0.00 0.00 58 1020.0
20260502041020 6 323 0.0 0.0 0.00 0.00 0.00 58 1020.1
20260502040003 6 323 0.0 0.0 0.00 0.00 0.00 57 1020.1
20260502035003 6 323 0.0 0.0 0.00 0.00 0.00 57 1020.1
20260502034004 6 323 0.0 0.0 0.00 0.00 0.00 57 1020.0
20260502033004 7 323 0.0 0.0 0.00 0.00 0.00 57 1020.0
20260502032003 7 323 0.0 0.0 0.00 0.00 0.00 56 1019.9
20260502031004 7 323 0.0 1.6 0.00 0.00 0.00 55 1019.9
20260502030003 7 323 0.0 0.0 0.00 0.00 0.00 53 1020.0
20260502025004 7 323 0.0 0.0 0.00 0.00 0.00 52 1019.9
20260502024019 7 323 0.0 0.0 0.00 0.00 0.00 51 1019.9
20260502023018 8 323 0.0 0.0 0.00 0.00 0.00 50 1019.8
20260502022003 8 323 0.0 0.0 0.00 0.00 0.00 49 1019.7
20260502021004 8 323 0.0 0.0 0.00 0.00 0.00 48 1019.7
20260502020004 9 323 0.0 1.6 0.00 0.00 0.00 47 1019.5
20260502015018 9 323 0.0 1.6 0.00 0.00 0.00 47 1019.5
20260502014019 10 325 0.0 1.6 0.00 0.00 0.00 45 1019.4
20260502013020 10 326 0.0 3.2 0.00 0.00 0.00 44 1019.5
20260502012003 10 328 1.6 4.8 0.00 0.00 0.00 42 1019.4
20260502011003 11 340 0.0 3.2 0.00 0.00 0.00 42 1019.4
20260502010004 11 330 3.2 11.3 0.00 0.00 0.00 41 1019.3
20260502005007 11 5 0.0 1.6 0.00 0.00 0.00 42 1019.3
20260502004003 11 17 3.2 6.4 0.00 0.00 0.00 39 1019.1
20260502003019 11 24 6.4 11.3 0.00 0.00 0.00 37 1019.2
20260502002003 11 283 3.2 9.7 0.00 0.00 0.00 40 1019.0
20260502001004 11 26 4.8 4.8 0.00 0.00 0.00 40 1019.0
20260502000003 11 355 1.6 6.4 0.00 0.00 0.00 41 1019.0
20260501235003 11 318 4.8 12.9 0.00 0.00 0.00 39 1019.1
20260501234004 11 314 3.2 8.0 0.00 0.00 0.00 40 1019.1
20260501233002 11 299 4.8 8.0 0.00 0.03 0.00 39 1019.2
20260501232003 11 355 0.0 1.6 0.00 0.03 0.00 39 1019.2
20260501231004 11 19 3.2 4.8 0.00 0.03 0.00 37 1019.2
20260501230020 11 355 0.0 4.8 0.00 0.03 0.00 39 1019.3
20260501225005 12 319 3.2 6.4 0.00 0.03 0.00 37 1019.2
20260501224018 12 355 1.6 4.8 0.00 0.03 0.00 36 1019.1
20260501223006 12 298 3.2 4.8 0.00 0.03 0.00 36 1019.1
20260501222003 12 311 8.0 17.7 0.00 0.03 0.00 35 1019.1
20260501221019 13 323 6.4 8.0 0.00 0.03 0.00 36 1019.1
20260501220005 12 255 1.6 3.2 0.00 0.03 0.00 35 1019.1
20260501215003 12 317 4.8 6.4 0.00 0.05 0.00 39 1019.3
20260501214004 12 16 11.3 17.7 0.00 0.08 0.00 36 1019.3
20260501213004 12 36 1.6 3.2 0.00 0.08 0.00 38 1019.2
20260501212005 12 355 3.2 8.0 0.00 0.08 0.00 36 1019.3
20260501211003 11 5 1.6 1.6 0.00 0.08 0.00 42 1019.4
20260501210003 11 24 1.6 6.4 0.00 0.08 0.00 41 1019.5
20260501205004 11 40 4.8 12.9 0.00 0.08 0.00 41 1019.5
20260501204004 11 20 6.4 12.9 0.00 0.08 0.00 41 1019.7
20260501203019 11 15 8.0 11.3 0.00 0.08 0.00 40 1019.8
20260501202020 12 27 6.4 12.9 0.00 0.08 0.00 41 1019.9
20260501201004 11 241 4.8 9.7 0.00 0.08 0.00 42 1019.9
20260501200005 11 64 3.2 4.8 0.00 0.08 0.00 43 1020.0
20260501195003 10 351 3.2 8.0 0.00 0.08 0.00 44 1020.1
20260501194005 11 340 1.6 1.6 0.00 0.08 0.00 44 1020.0
20260501193005 10 319 3.2 4.8 0.00 0.08 0.00 45 1020.0
20260501192005 10 331 4.8 9.7 0.00 0.08 0.00 46 1020.1
20260501191004 10 12 6.4 11.3 0.00 0.08 0.00 47 1020.1
20260501190005 10 357 9.7 12.9 0.00 0.08 0.00 47 1020.3
20260501185002 10 336 4.8 16.1 0.00 0.08 0.00 49 1020.0
20260501184004 8 358 4.8 11.3 0.00 0.08 0.00 49 1020.3
20260501183003 10 22 11.3 14.5 0.00 0.08 0.00 48 1020.2
20260501182004 9 271 1.6 1.6 0.00 0.08 0.00 50 1020.1
20260501181004 8 321 1.6 6.4 0.00 0.08 0.00 51 1020.2
20260501180004 8 358 6.4 8.0 0.00 0.08 0.00 51 1020.2
20260501175003 8 18 3.2 3.2 0.00 0.08 0.00 51 1020.4
20260501174003 8 333 4.8 8.0 0.00 0.08 0.00 52 1020.3
20260501173004 8 350 3.2 8.0 0.00 0.08 0.00 54 1020.5
20260501172004 8 25 8.0 11.3 0.00 0.08 0.00 51 1020.4
20260501171004 8 16 6.4 8.0 0.00 0.08 0.00 50 1020.4
20260501170019 8 346 8.0 16.1 0.00 0.08 0.00 50 1020.4
20260501165003 8 6 6.4 9.7 0.00 0.08 0.00 52 1020.5
20260501164003 8 17 3.2 3.2 0.00 0.08 0.00 51 1020.3
20260501163005 7 14 12.9 17.7 0.00 0.08 0.00 52 1020.5
20260501162003 8 12 4.8 8.0 0.00 0.08 0.00 52 1020.4
20260501161004 8 5 3.2 4.8 0.00 0.08 0.00 48 1020.4